QPF
0.00 0.00 0.00 0.00 0.00 0.00 0.00 0.00 0.00 0.00 0.00 0.00 0.00 0.00 0.00 0.00 0.01 0.00 0.00 0.00 0.00 0.00 0.00 0.00 0.00 0.00 0.00 0.00 0.00 0.00 0.00 0.00 0.00 0.00 0.00 0.00 0.00 0.00 0.00 0.00 0.00 0.00 0.00 0.00
0.00 0.00 0.00 0.00 0.00 0.00 0.00 0.00 0.00 0.00 0.00 0.00 0.00 0.00 0.01 0.03 0.03 0.00 0.00 0.00 0.01 0.00 0.00 0.00 0.00 0.00 0.00 0.00 0.00 0.00 0.00 0.00 0.00 0.00 0.00 0.00 0.00 0.00 0.00 0.00 0.00 0.00 0.00 0.00
0.00 0.00 0.00 0.00 0.00 0.00 0.00 0.00 0.00 0.00 0.00 0.00 0.00 0.02 0.03 0.06 0.05 0.02 0.00 0.01 0.00 0.00 0.00 0.00 0.00 0.00 0.00 0.00 0.00 0.00 0.00 0.00 0.00 0.00 0.00 0.00 0.00 0.00 0.00 0.00 0.00 0.00 0.00 0.00
0.00 0.00 0.00 0.00 0.00 0.00 0.00 0.00 0.00 0.00 0.00 0.00 0.00 0.02 0.02 0.01 0.02 0.03 0.00 0.00 0.00 0.00 0.00 0.00 0.00 0.00 0.00 0.00 0.00 0.00 0.00 0.00 0.00 0.00 0.00 0.00 0.00 0.00 0.00 0.00 0.00 0.00 0.00 0.00
0.00 0.00 0.00 0.00 0.00 0.00 0.00 0.00 0.00 0.00 0.00 0.00 0.00 0.00 0.01 0.01 0.02 0.03 0.00 0.00 0.00 0.00 0.00 0.00 0.00 0.00 0.00 0.00 0.00 0.00 0.00 0.00 0.00 0.00 0.00 0.00 0.00 0.00 0.00 0.00 0.00 0.00 0.00 0.00
0.00 0.00 0.00 0.00 0.00 0.00 0.00 0.00 0.00 0.00 0.00 0.00 0.01 0.00 0.02 0.01 0.02 0.02 0.00 0.00 0.00 0.00 0.00 0.00 0.00 0.00 0.00 0.00 0.00 0.00 0.00 0.00 0.00 0.00 0.00 0.00 0.00 0.00 0.00 0.00 0.00 0.00 0.00 0.00
0.00 0.00 0.00 0.00 0.00 0.00 0.00 0.00 0.00 0.00 0.00 0.00 0.00 0.01 0.00 0.00 0.01 0.01 0.00 0.00 0.00 0.00 0.00 0.00 0.00 0.00 0.00 0.00 0.00 0.00 0.00 0.00 0.00 0.00 0.00 0.00 0.00 0.00 0.00 0.00 0.00 0.00 0.00 0.00
0.00 0.00 0.00 0.00 0.00 0.00 0.00 0.00 0.00 0.00 0.00 0.00 0.00 0.00 0.01 0.00 0.00 0.00 0.00 0.00 0.00 0.00 0.00 0.00 0.00 0.00 0.00 0.00 0.00 0.00 0.00 0.00 0.00 0.00 0.00 0.00 0.00 0.00 0.00 0.00 0.00 0.00 0.00 0.01
0.00 0.00 0.00 0.00 0.00 0.00 0.00 0.00 0.00 0.00 0.00 0.00 0.00 0.00 0.01 0.00 0.00 0.00 0.00 0.00 0.00 0.00 0.00 0.00 0.00 0.00 0.00 0.00 0.00 0.00 0.00 0.00 0.00 0.00 0.00 0.00 0.00 0.00 0.00 0.01 0.01 0.01 0.02 0.02
0.00 0.00 0.00 0.00 0.00 0.00 0.00 0.00 0.00 0.00 0.00 0.00 0.00 0.01 0.01 0.00 0.00 0.00 0.00 0.00 0.00 0.00 0.00 0.00 0.00 0.00 0.00 0.00 0.00 0.00 0.00 0.00 0.00 0.00 0.00 0.00 0.00 0.00 0.01 0.01 0.01 0.01 0.02 0.03
0.00 0.00 0.00 0.00 0.00 0.00 0.00 0.00 0.00 0.00 0.00 0.00 0.00 0.00 0.00 0.00 0.00 0.00 0.00 0.00 0.00 0.00 0.00 0.00 0.00 0.00 0.00 0.00 0.00 0.00 0.00 0.00 0.00 0.00 0.00 0.00 0.00 0.00 0.01 0.01 0.01 0.00 0.01 0.03
0.00 0.00 0.00 0.00 0.00 0.00 0.00 0.00 0.00 0.00 0.00 0.00 0.00 0.00 0.00 0.00 0.00 0.00 0.00 0.00 0.00 0.00 0.00 0.00 0.00 0.00 0.00 0.00 0.00 0.00 0.00 0.00 0.00 0.00 0.00 0.00 0.00 0.00 0.01 0.02 0.00 0.00 0.01 0.01
0.00 0.00 0.00 0.00 0.00 0.00 0.00 0.00 0.00 0.00 0.00 0.00 0.00 0.00 0.00 0.00 0.00 0.00 0.00 0.00 0.00 0.00 0.00 0.00 0.00 0.00 0.00 0.00 0.00 0.00 0.00 0.00 0.00 0.00 0.00 0.00 0.00 0.00 0.02 0.02 0.00 0.00 0.00 0.01
0.00 0.00 0.00 0.00 0.00 0.00 0.00 0.00 0.00 0.00 0.00 0.00 0.00 0.00 0.00 0.00 0.00 0.00 0.00 0.00 0.00 0.00 0.00 0.00 0.00 0.00 0.00 0.00 0.00 0.00 0.00 0.00 0.00 0.00 0.00 0.00 0.00 0.00 0.01 0.02 0.01 0.00 0.00 0.00
0.00 0.00 0.00 0.00 0.00 0.00 0.00 0.00 0.00 0.00 0.00 0.00 0.00 0.00 0.00 0.00 0.00 0.00 0.00 0.00 0.00 0.00 0.00 0.00 0.00 0.00 0.00 0.00 0.00 0.00 0.00 0.00 0.00 0.00 0.00 0.00 0.00 0.00 0.00 0.01 0.02 0.00 0.00 0.01
0.00 0.00 0.00 0.00 0.00 0.00 0.00 0.00 0.00 0.00 0.00 0.00 0.00 0.00 0.00 0.00 0.00 0.00 0.00 0.00 0.00 0.00 0.00 0.00 0.00 0.00 0.00 0.00 0.00 0.00 0.00 0.00 0.00 0.00 0.00 0.00 0.00 0.00 0.00 0.00 0.02 0.00 0.00 0.00
0.00 0.00 0.00 0.00 0.00 0.00 0.00 0.00 0.00 0.00 0.00 0.00 0.00 0.00 0.00 0.00 0.00 0.00 0.00 0.00 0.00 0.00 0.00 0.00 0.00 0.00 0.00 0.00 0.00 0.00 0.00 0.00 0.00 0.00 0.00 0.00 0.00 0.00 0.00 0.00 0.01 0.01 0.01 0.00
0.00 0.00 0.00 0.00 0.00 0.00 0.00 0.00 0.00 0.00 0.00 0.00 0.00 0.00 0.00 0.00 0.00 0.00 0.00 0.00 0.00 0.00 0.00 0.00 0.00 0.00 0.00 0.00 0.00 0.00 0.00 0.00 0.00 0.00 0.00 0.00 0.00 0.00 0.00 0.00 0.00 0.02 0.03 0.00
0.00 0.00 0.00 0.00 0.00 0.00 0.00 0.00 0.00 0.00 0.00 0.00 0.00 0.00 0.00 0.00 0.00 0.00 0.00 0.00 0.00 0.00 0.00 0.00 0.00 0.00 0.00 0.00 0.00 0.00 0.00 0.00 0.00 0.00 0.00 0.00 0.00 0.00 0.00 0.00 0.00 0.01 0.03 0.01
0.00 0.00 0.00 0.00 0.00 0.00 0.00 0.00 0.00 0.00 0.00 0.00 0.00 0.00 0.00 0.00 0.00 0.00 0.00 0.00 0.00 0.00 0.00 0.00 0.00 0.00 0.00 0.00 0.00 0.00 0.00 0.00 0.00 0.00 0.00 0.00 0.00 0.00 0.00 0.00 0.00 0.00 0.03 0.01
0.00 0.00 0.00 0.00 0.00 0.00 0.00 0.00 0.00 0.00 0.00 0.00 0.00 0.00 0.00 0.00 0.00 0.00 0.00 0.00 0.00 0.00 0.00 0.00 0.00 0.00 0.00 0.00 0.00 0.00 0.00 0.00 0.00 0.00 0.00 0.00 0.00 0.00 0.00 0.00 0.00 0.00 0.02 0.02
0.01 0.00 0.00 0.00 0.00 0.00 0.00 0.00 0.00 0.00 0.00 0.00 0.00 0.00 0.00 0.00 0.00 0.00 0.00 0.00 0.00 0.00 0.00 0.00 0.00 0.00 0.00 0.00 0.00 0.00 0.00 0.00 0.00 0.00 0.00 0.00 0.00 0.00 0.00 0.00 0.00 0.00 0.00 0.01
0.00 0.00 0.00 0.00 0.00 0.00 0.00 0.00 0.00 0.00 0.00 0.00 0.00 0.00 0.00 0.00 0.00 0.00 0.00 0.00 0.00 0.00 0.00 0.00 0.00 0.00 0.00 0.00 0.00 0.00 0.00 0.00 0.00 0.00 0.00 0.00 0.00 0.00 0.00 0.00 0.00 0.00 0.00 0.00
0.00 0.00 0.00 0.00 0.00 0.00 0.00 0.00 0.00 0.00 0.00 0.00 0.00 0.00 0.00 0.00 0.00 0.00 0.00 0.00 0.00 0.00 0.00 0.00 0.00 0.00 0.00 0.00 0.00 0.00 0.00 0.00 0.00 0.00 0.00 0.00 0.00 0.00 0.00 0.00 0.00 0.00 0.00 0.00
0.00 0.00 0.00 0.00 0.00 0.00 0.00 0.00 0.00 0.00 0.00 0.00 0.00 0.00 0.00 0.00 0.00 0.00 0.00 0.00 0.00 0.00 0.00 0.00 0.00 0.00 0.00 0.00 0.00 0.00 0.00 0.00 0.00 0.00 0.00 0.00 0.00 0.00 0.00 0.00 0.00 0.00 0.00 0.00
0.00 0.00 0.00 0.00 0.00 0.00 0.00 0.00 0.00 0.00 0.00 0.00 0.00 0.00 0.00 0.00 0.00 0.00 0.00 0.00 0.00 0.00 0.00 0.00 0.00 0.00 0.00 0.00 0.00 0.00 0.00 0.00 0.00 0.00 0.00 0.00 0.00 0.00 0.00 0.00 0.00 0.00 0.00 0.00
MSLP
1003.53 1003.25 1002.96 1003.28 1003.39 1003.09 1003.20 1004.30 1004.72 1005.48 1005.74 1006.11 1007.63 1008.94 1009.79 1011.20 1011.56 1010.15 1011.03 1011.92 1013.28 1014.18 1014.93 1015.23 1016.04 1016.74 1017.40 1017.87 1018.29 1018.64 1018.69 1018.72 1018.31 1017.60 1017.40 1016.99 1016.39 1015.75 1015.62 1015.84 1016.20 1016.19 1016.40 1016.37
1003.22 1002.74 1002.49 1002.58 1002.95 1003.20 1003.66 1004.70 1005.50 1006.19 1006.06 1007.02 1008.00 1012.80 1012.99 1013.42 1013.05 1011.54 1011.69 1011.67 1013.35 1014.52 1015.08 1015.75 1016.24 1016.77 1017.38 1018.01 1018.65 1019.03 1019.19 1019.16 1019.10 1018.75 1018.49 1018.09 1017.43 1016.84 1016.58 1016.48 1016.49 1016.43 1016.55 1016.48
1002.50 1002.84 1002.88 1002.89 1002.88 1003.43 1004.34 1004.69 1005.38 1005.89 1007.23 1009.93 1012.47 1015.28 1016.97 1017.00 1016.22 1016.34 1012.60 1010.64 1012.54 1014.12 1015.22 1015.78 1016.18 1016.63 1017.22 1018.08 1018.59 1019.11 1019.41 1019.54 1019.63 1019.52 1019.23 1018.76 1018.25 1017.60 1017.47 1017.40 1017.21 1016.82 1016.67 1016.74
1002.51 1002.66 1002.90 1002.92 1003.30 1003.62 1003.99 1004.99 1005.77 1006.79 1008.37 1012.72 1015.30 1017.22 1018.76 1019.22 1018.98 1016.56 1013.51 1013.29 1013.65 1014.24 1014.95 1015.33 1015.87 1016.57 1017.24 1017.80 1018.41 1019.03 1019.49 1019.74 1019.84 1019.85 1019.67 1019.55 1019.20 1018.66 1018.46 1018.14 1017.76 1017.20 1016.77 1017.38
1002.48 1002.51 1002.75 1003.31 1004.02 1004.45 1004.55 1005.27 1006.74 1008.63 1010.93 1013.24 1014.76 1015.19 1015.63 1017.28 1017.45 1015.32 1013.77 1013.70 1013.73 1014.19 1014.53 1015.13 1015.81 1016.54 1017.20 1017.88 1018.34 1018.91 1019.45 1019.88 1020.12 1020.12 1020.15 1020.06 1019.91 1019.41 1018.97 1018.80 1018.32 1018.27 1018.14 1017.93
1002.84 1002.82 1003.40 1003.95 1004.13 1004.55 1004.93 1005.77 1006.59 1008.34 1010.68 1012.78 1011.84 1014.31 1015.29 1015.61 1015.01 1014.15 1013.34 1013.33 1013.53 1013.57 1014.29 1015.10 1016.02 1016.68 1017.35 1018.08 1018.53 1018.80 1019.44 1020.15 1020.27 1020.21 1020.35 1020.55 1020.59 1020.10 1020.04 1019.58 1019.25 1018.91 1018.54 1018.26
1002.94 1003.26 1003.79 1004.29 1004.13 1004.75 1005.03 1005.25 1006.34 1008.53 1009.02 1009.77 1011.69 1013.34 1012.86 1013.21 1013.44 1012.69 1012.56 1012.99 1013.29 1013.68 1014.48 1015.27 1016.22 1016.99 1017.54 1018.13 1018.62 1018.90 1019.75 1020.26 1020.33 1020.38 1020.78 1021.05 1020.95 1020.67 1020.46 1020.30 1019.91 1019.69 1019.20 1018.87
1003.28 1004.29 1004.11 1004.46 1004.62 1004.98 1005.08 1005.21 1006.08 1007.27 1008.04 1009.58 1010.57 1012.84 1013.78 1012.18 1012.40 1012.48 1012.56 1013.21 1013.71 1014.31 1014.94 1015.58 1016.49 1017.35 1017.75 1018.14 1018.64 1019.11 1019.76 1020.28 1020.37 1020.52 1021.15 1021.27 1021.31 1021.12 1020.95 1020.73 1020.44 1019.97 1019.70 1019.30
1005.39 1004.73 1004.69 1005.00 1004.96 1005.26 1005.35 1005.50 1006.19 1006.85 1006.83 1008.56 1011.44 1013.78 1012.90 1012.60 1012.12 1012.14 1012.64 1013.40 1014.13 1014.51 1014.95 1015.66 1016.58 1017.56 1018.02 1018.32 1018.81 1019.34 1019.78 1020.20 1020.44 1020.77 1021.19 1021.35 1021.42 1021.42 1021.17 1020.86 1020.53 1020.21 1019.81 1019.53
1005.15 1004.84 1004.71 1005.18 1005.25 1005.31 1005.57 1005.99 1005.94 1006.44 1007.07 1008.03 1010.14 1012.09 1011.52 1011.77 1011.58 1011.99 1012.49 1013.10 1014.08 1014.38 1014.86 1015.73 1016.69 1017.64 1018.32 1018.64 1018.98 1019.48 1019.84 1020.19 1020.49 1021.06 1021.31 1021.43 1021.58 1021.43 1021.22 1020.94 1020.57 1020.30 1020.04 1019.76
1004.86 1005.22 1005.47 1005.45 1005.83 1005.62 1005.54 1005.60 1006.51 1007.20 1007.88 1008.51 1008.94 1009.95 1009.74 1010.49 1011.35 1011.81 1012.30 1013.10 1013.89 1014.27 1015.09 1015.80 1016.74 1017.70 1018.60 1019.09 1019.41 1019.87 1020.22 1020.40 1020.62 1021.27 1021.51 1021.66 1021.63 1021.43 1021.23 1021.03 1020.72 1020.48 1020.21 1020.03
1005.43 1005.71 1006.10 1007.36 1007.52 1006.54 1006.45 1006.64 1007.24 1008.09 1008.54 1008.79 1009.39 1012.13 1010.63 1010.49 1011.31 1011.99 1012.67 1013.47 1014.35 1014.84 1015.42 1016.02 1016.88 1017.88 1018.82 1019.40 1019.86 1020.11 1020.57 1020.71 1020.77 1021.39 1021.46 1021.52 1021.57 1021.49 1021.34 1021.05 1020.82 1020.55 1020.43 1020.14
1006.18 1006.49 1006.87 1008.22 1008.47 1007.71 1006.67 1006.97 1007.60 1008.20 1008.83 1009.53 1009.56 1010.58 1011.22 1010.87 1011.60 1012.26 1012.84 1013.94 1014.57 1014.93 1015.72 1016.48 1017.28 1018.15 1019.00 1019.59 1020.06 1020.39 1020.84 1021.01 1020.93 1021.00 1021.19 1021.58 1021.61 1021.51 1021.36 1021.08 1020.90 1020.74 1020.63 1020.55
1007.18 1007.01 1007.06 1008.23 1007.58 1007.07 1006.63 1007.05 1007.34 1008.10 1008.64 1008.93 1009.45 1010.05 1010.70 1010.99 1011.23 1011.97 1012.97 1013.86 1014.13 1014.85 1015.88 1016.92 1017.80 1018.57 1019.22 1019.87 1020.15 1020.55 1021.03 1021.30 1021.05 1020.86 1021.06 1021.43 1021.59 1021.49 1021.45 1021.24 1021.10 1021.00 1020.85 1020.78
1007.33 1007.41 1007.31 1006.87 1007.03 1006.99 1006.62 1006.69 1007.03 1007.83 1008.53 1009.11 1009.39 1010.12 1010.81 1011.27 1012.30 1012.39 1013.19 1013.83 1014.22 1014.94 1016.02 1017.09 1018.09 1018.98 1019.51 1020.10 1020.30 1020.63 1021.10 1021.34 1021.20 1020.97 1020.88 1021.13 1021.29 1021.42 1021.46 1021.36 1021.22 1021.16 1021.02 1020.84
1007.48 1007.57 1007.50 1007.10 1006.89 1007.03 1006.87 1006.67 1007.34 1007.86 1008.70 1009.14 1010.00 1010.55 1010.95 1011.29 1011.86 1012.83 1013.31 1013.76 1014.35 1015.33 1016.35 1017.39 1018.34 1019.28 1019.89 1020.24 1020.56 1020.73 1021.11 1021.25 1021.20 1021.00 1020.89 1020.92 1021.14 1021.34 1021.45 1021.31 1021.19 1021.22 1021.11 1020.99
1007.59 1007.78 1007.76 1007.55 1007.36 1007.10 1007.04 1006.78 1006.85 1008.01 1008.78 1009.50 1009.97 1010.72 1010.97 1011.35 1011.85 1012.62 1013.14 1013.69 1014.65 1015.67 1016.62 1017.54 1018.52 1019.47 1020.11 1020.35 1020.69 1020.83 1021.02 1021.02 1021.06 1021.10 1020.85 1020.97 1021.13 1021.25 1021.38 1021.35 1021.27 1021.13 1021.08 1021.03
1007.61 1007.88 1007.94 1007.75 1007.45 1007.13 1007.06 1007.40 1007.66 1008.30 1008.77 1009.57 1010.21 1010.76 1011.25 1011.60 1011.88 1012.38 1013.17 1014.09 1014.98 1015.95 1016.89 1017.68 1018.62 1019.56 1020.21 1020.49 1020.68 1020.80 1020.87 1020.90 1021.06 1021.18 1021.04 1021.12 1021.28 1021.38 1021.41 1021.43 1021.35 1021.22 1021.13 1021.06
1007.73 1007.91 1008.05 1008.31 1007.62 1007.31 1007.16 1007.94 1008.20 1008.58 1009.54 1010.04 1010.59 1011.06 1011.46 1011.82 1012.32 1012.89 1013.70 1014.51 1015.53 1016.53 1017.34 1018.19 1019.04 1019.84 1020.37 1020.68 1020.73 1020.81 1020.78 1020.97 1021.13 1021.24 1021.19 1021.27 1021.51 1021.42 1021.40 1021.48 1021.41 1021.33 1021.18 1020.91
1007.94 1008.16 1008.57 1008.15 1008.11 1007.85 1008.00 1008.39 1008.62 1009.12 1009.79 1010.63 1011.19 1011.53 1011.81 1012.28 1012.71 1013.53 1014.38 1015.24 1016.17 1016.94 1017.51 1018.26 1019.06 1019.77 1020.29 1020.69 1020.78 1020.87 1020.88 1021.07 1021.28 1021.33 1021.28 1021.28 1021.47 1021.47 1021.38 1021.54 1021.30 1021.16 1021.14 1020.95
1008.87 1008.88 1008.61 1008.25 1008.24 1008.17 1008.31 1008.70 1008.84 1009.41 1011.30 1011.36 1011.80 1012.20 1012.24 1012.96 1014.00 1014.50 1014.98 1015.86 1016.58 1017.24 1017.82 1018.51 1019.04 1019.67 1020.39 1020.67 1020.76 1020.86 1021.10 1021.25 1021.40 1021.38 1021.23 1021.24 1021.34 1021.23 1021.21 1021.33 1021.15 1020.81 1020.73 1020.80
1010.92 1009.53 1008.54 1008.16 1008.32 1008.95 1009.43 1009.17 1009.49 1010.67 1011.07 1011.65 1012.21 1012.60 1012.69 1013.53 1014.32 1014.80 1015.34 1016.14 1016.82 1017.40 1018.04 1018.35 1018.79 1019.33 1020.10 1020.34 1020.52 1020.62 1021.07 1021.28 1021.29 1021.34 1021.25 1021.21 1021.33 1021.25 1021.23 1021.07 1020.83 1020.51 1020.44 1020.48
1009.81 1009.81 1008.66 1008.67 1009.67 1009.40 1009.40 1009.78 1010.31 1010.70 1010.96 1011.53 1012.21 1012.64 1012.90 1013.44 1014.09 1014.65 1015.38 1016.19 1016.79 1017.17 1017.70 1018.01 1018.42 1019.08 1019.65 1020.00 1020.32 1020.63 1020.87 1021.02 1021.10 1021.18 1021.22 1021.16 1021.21 1021.03 1020.92 1020.82 1020.67 1020.41 1020.18 1020.12
1008.12 1008.36 1008.48 1008.44 1008.66 1009.03 1009.22 1009.59 1010.29 1010.61 1010.82 1011.41 1012.04 1012.54 1012.98 1013.39 1013.91 1014.50 1015.28 1016.10 1016.81 1017.19 1017.67 1018.04 1018.41 1018.65 1019.12 1019.57 1019.91 1020.13 1020.48 1020.79 1021.02 1021.01 1020.94 1020.90 1020.78 1020.73 1020.64 1020.43 1020.29 1020.18 1020.05 1020.09
1008.34 1008.64 1008.81 1008.99 1008.80 1008.63 1008.85 1009.20 1009.75 1010.38 1010.78 1011.27 1011.85 1012.40 1012.79 1013.20 1013.62 1014.18 1014.95 1015.85 1016.48 1016.98 1017.37 1017.84 1018.28 1018.50 1018.78 1019.10 1019.52 1019.83 1020.18 1020.51 1020.74 1020.81 1020.75 1020.49 1020.15 1020.14 1020.15 1019.91 1019.97 1019.88 1019.86 1020.09
1008.36 1008.39 1008.71 1009.40 1009.54 1009.64 1009.44 1009.47 1009.69 1010.22 1010.61 1011.16 1011.74 1012.34 1012.77 1013.13 1013.56 1013.98 1014.77 1015.55 1016.29 1016.73 1017.19 1017.75 1018.19 1018.53 1018.69 1018.70 1018.99 1019.31 1019.68 1020.14 1020.45 1020.59 1020.28 1020.26 1020.05 1019.79 1019.63 1019.46 1019.59 1019.55 1019.64 1019.81
Thickness
5853 5836 5826 5822 5843 5852 5853 5831 5820 5824 5837 5825 5806 5798 5799 5782 5754 5783 5778 5770 5757 5748 5746 5743 5735 5726 5718 5713 5705 5697 5691 5685 5681 5680 5674 5670 5668 5666 5661 5653 5643 5635 5623 5617
5841 5831 5859 5865 5858 5847 5839 5815 5805 5816 5833 5823 5799 5741 5760 5760 5728 5784 5770 5760 5745 5740 5738 5733 5726 5722 5716 5708 5699 5690 5683 5678 5670 5666 5660 5655 5653 5650 5643 5633 5626 5617 5611 5604
5841 5844 5861 5853 5849 5833 5824 5818 5815 5818 5818 5790 5750 5707 5716 5725 5740 5723 5775 5757 5758 5742 5729 5726 5723 5719 5713 5703 5697 5686 5678 5670 5661 5654 5649 5645 5640 5635 5627 5617 5611 5604 5598 5590
5848 5863 5849 5844 5834 5839 5819 5833 5828 5807 5794 5723 5736 5705 5697 5701 5692 5704 5763 5756 5745 5739 5733 5730 5723 5715 5708 5701 5695 5685 5675 5665 5656 5648 5640 5632 5624 5617 5610 5603 5597 5591 5586 5575
5842 5848 5843 5827 5825 5835 5820 5836 5812 5789 5763 5748 5731 5724 5729 5716 5704 5716 5748 5747 5745 5738 5736 5729 5721 5714 5708 5700 5690 5682 5671 5660 5649 5641 5631 5622 5612 5607 5601 5592 5584 5572 5563 5558
5849 5871 5849 5834 5842 5837 5841 5816 5813 5791 5766 5711 5744 5725 5679 5715 5727 5725 5752 5749 5743 5742 5736 5728 5720 5713 5705 5697 5687 5680 5668 5653 5645 5636 5626 5614 5602 5596 5585 5578 5569 5560 5553 5546
5842 5840 5849 5847 5828 5833 5827 5811 5779 5750 5757 5737 5756 5725 5742 5755 5748 5754 5753 5747 5747 5743 5733 5723 5713 5705 5700 5693 5685 5678 5663 5648 5640 5631 5619 5606 5595 5587 5577 5568 5559 5549 5542 5537
5811 5784 5830 5841 5826 5808 5810 5811 5780 5743 5755 5757 5765 5737 5714 5775 5775 5771 5766 5753 5744 5736 5729 5720 5711 5702 5697 5691 5683 5673 5659 5645 5637 5628 5613 5601 5590 5580 5571 5562 5554 5547 5539 5535
5779 5793 5835 5834 5837 5826 5805 5793 5813 5784 5802 5764 5750 5718 5750 5761 5766 5766 5755 5746 5735 5731 5727 5719 5710 5700 5693 5687 5678 5667 5655 5645 5635 5623 5610 5598 5588 5576 5568 5561 5553 5546 5541 5536
5805 5790 5828 5827 5835 5832 5815 5820 5784 5792 5758 5755 5749 5720 5733 5746 5756 5756 5746 5738 5731 5730 5724 5716 5708 5698 5690 5684 5676 5664 5654 5642 5632 5619 5607 5597 5585 5575 5568 5560 5554 5547 5541 5537
5828 5810 5806 5824 5805 5801 5807 5803 5797 5793 5784 5757 5755 5749 5782 5768 5760 5755 5751 5742 5731 5726 5719 5714 5707 5698 5687 5680 5672 5660 5649 5640 5630 5616 5605 5594 5584 5576 5569 5561 5555 5548 5543 5539
5827 5809 5789 5773 5798 5819 5812 5797 5792 5758 5754 5772 5766 5706 5779 5779 5770 5761 5748 5741 5729 5723 5717 5713 5706 5695 5684 5675 5666 5657 5646 5636 5628 5615 5606 5595 5586 5576 5569 5563 5557 5550 5545 5541
5818 5796 5771 5755 5776 5799 5797 5800 5795 5787 5778 5752 5744 5739 5770 5775 5764 5758 5746 5733 5728 5723 5715 5708 5701 5691 5680 5672 5663 5655 5643 5633 5626 5617 5607 5595 5586 5577 5570 5564 5559 5552 5546 5541
5810 5798 5784 5748 5772 5796 5789 5790 5795 5782 5757 5761 5757 5749 5757 5759 5754 5753 5742 5735 5731 5723 5713 5703 5694 5686 5678 5669 5662 5653 5641 5631 5625 5619 5609 5597 5587 5579 5571 5566 5560 5553 5548 5542
5806 5778 5792 5805 5801 5800 5799 5795 5794 5777 5775 5755 5765 5753 5752 5755 5745 5748 5741 5734 5729 5720 5710 5701 5690 5681 5675 5665 5660 5652 5641 5631 5625 5618 5610 5600 5591 5581 5573 5567 5561 5555 5549 5545
5805 5778 5789 5785 5802 5797 5785 5796 5788 5783 5776 5772 5759 5749 5767 5767 5759 5743 5736 5731 5724 5714 5707 5698 5689 5678 5670 5664 5657 5651 5640 5632 5626 5618 5611 5603 5593 5583 5574 5568 5563 5557 5551 5545
5788 5781 5775 5763 5787 5789 5768 5787 5792 5781 5781 5770 5746 5753 5765 5754 5749 5741 5736 5731 5720 5711 5704 5696 5686 5676 5668 5663 5656 5649 5642 5635 5627 5618 5612 5603 5594 5585 5577 5570 5564 5558 5553 5547
5784 5780 5781 5765 5779 5744 5784 5802 5795 5780 5780 5778 5769 5764 5760 5755 5753 5748 5739 5727 5718 5711 5702 5696 5687 5676 5668 5663 5657 5650 5644 5636 5627 5617 5611 5603 5594 5585 5579 5572 5565 5559 5553 5548
5797 5785 5768 5751 5762 5780 5785 5781 5778 5770 5760 5775 5764 5761 5759 5757 5750 5739 5736 5728 5716 5707 5700 5692 5684 5674 5667 5660 5656 5649 5643 5635 5626 5617 5611 5603 5594 5587 5580 5573 5567 5561 5554 5550
5794 5793 5768 5767 5745 5735 5767 5783 5794 5784 5743 5770 5764 5756 5752 5748 5723 5722 5729 5721 5711 5705 5700 5691 5684 5675 5667 5659 5654 5647 5641 5633 5624 5617 5611 5605 5597 5589 5583 5575 5571 5566 5558 5553
5762 5765 5756 5760 5754 5767 5783 5784 5791 5740 5732 5761 5758 5752 5748 5734 5727 5727 5725 5714 5708 5701 5695 5688 5682 5672 5664 5658 5653 5645 5637 5630 5624 5618 5613 5607 5599 5593 5587 5579 5573 5570 5564 5557
5730 5745 5754 5763 5750 5730 5774 5775 5755 5756 5762 5759 5753 5748 5744 5737 5731 5725 5719 5709 5701 5695 5689 5687 5680 5673 5665 5660 5653 5646 5636 5631 5625 5618 5612 5607 5599 5594 5588 5583 5578 5574 5568 5562
5736 5742 5750 5754 5737 5769 5776 5767 5772 5769 5761 5757 5751 5748 5745 5736 5728 5723 5713 5705 5699 5695 5689 5687 5681 5672 5666 5660 5653 5643 5638 5633 5626 5619 5611 5606 5601 5596 5592 5586 5581 5576 5573 5566
5775 5778 5762 5762 5770 5766 5771 5772 5770 5768 5763 5760 5754 5748 5742 5732 5728 5720 5712 5703 5695 5691 5685 5682 5677 5672 5666 5661 5654 5648 5641 5633 5625 5618 5613 5607 5602 5598 5594 5590 5584 5580 5575 5568
5764 5765 5752 5752 5764 5771 5769 5771 5767 5764 5763 5757 5753 5746 5740 5733 5726 5720 5710 5701 5694 5688 5684 5679 5673 5669 5665 5661 5653 5648 5641 5633 5625 5619 5613 5610 5608 5601 5596 5593 5587 5583 5578 5570
5763 5755 5746 5732 5756 5752 5749 5764 5763 5756 5752 5752 5746 5739 5738 5733 5724 5719 5708 5700 5691 5684 5680 5674 5669 5665 5662 5660 5654 5648 5642 5633 5624 5617 5615 5609 5605 5603 5598 5595 5589 5584 5577 5571